CAPE
7 25 20 18 3 43 59 86 118 106 56 10 0 0 3 0 1 3 17 37 52 19 0 0 0 0 0 0 0 0 0 0 0 0 0 0 0 0 0 0 0 0 0 0 0
5 12 21 4 42 63 85 106 219 147 50 0 0 0 0 0 2 26 60 45 17 0 0 0 0 0 0 0 0 0 0 0 0 0 0 0 0 0 0 0 0 0 0 0 0
6 39 1 20 127 85 182 170 278 221 49 17 1 0 0 20 29 2 14 1 0 0 0 0 0 1 0 0 0 0 0 0 0 0 0 0 0 0 0 0 0 0 0 0 0
9 5 92 53 87 188 214 115 83 115 78 10 20 0 0 0 1 0 0 0 0 0 0 0 0 0 0 0 0 0 0 0 0 0 0 0 0 0 0 0 0 0 0 0 0
6 26 7 71 101 123 105 62 32 61 97 28 19 3 14 0 0 0 0 0 0 0 0 0 0 0 0 0 0 0 0 0 0 0 0 0 0 0 0 0 0 0 0 0 0
5 43 33 20 40 61 40 49 29 25 23 7 27 47 11 0 0 0 0 0 0 0 0 0 0 0 0 0 0 0 0 0 0 0 0 0 0 0 0 0 0 0 0 0 0
0 1 33 3 31 48 48 7 0 5 14 21 22 1 0 0 0 0 0 0 0 0 0 0 0 0 0 0 0 0 0 0 0 0 0 0 0 0 0 0 0 0 0 0 0
0 0 0 1 0 0 0 0 0 0 0 0 0 0 0 0 0 0 0 0 0 0 0 0 0 0 0 0 0 0 0 0 0 0 0 0 0 0 0 0 0 0 0 0 0
0 0 0 0 0 0 0 0 0 0 0 0 0 0 0 0 0 0 0 0 0 0 0 0 0 0 0 0 0 0 0 0 0 0 0 0 0 0 0 0 0 0 0 0 0
0 0 0 0 0 0 0 0 0 0 0 0 0 0 0 0 0 0 0 0 0 0 0 0 0 0 0 0 0 0 0 0 0 0 0 0 0 0 0 0 0 0 0 0 0
0 0 0 0 0 0 0 0 0 0 0 0 0 0 0 0 0 0 0 0 0 0 0 0 0 0 0 0 0 0 0 0 0 0 0 0 0 0 0 0 0 0 0 0 0
0 0 0 0 0 0 0 0 0 0 0 0 0 0 0 0 0 0 0 0 0 0 0 0 0 0 0 0 0 0 0 0 0 0 0 0 0 0 0 0 0 0 0 0 0
0 0 0 0 0 0 0 0 0 0 0 0 0 0 0 0 0 0 0 0 0 0 0 0 0 0 0 0 0 0 0 0 0 0 0 0 0 0 0 0 0 0 0 0 0
0 0 0 0 0 0 0 0 0 0 0 0 0 0 0 0 0 0 0 0 0 0 0 0 0 0 0 0 0 0 0 0 0 0 0 0 0 0 0 0 0 0 0 0 0
0 0 0 0 0 0 0 0 0 0 0 0 0 0 0 0 0 0 0 0 0 0 0 0 0 0 0 0 0 0 0 0 0 0 0 0 0 0 0 0 0 0 0 0 0
0 0 0 0 0 0 0 0 0 0 0 0 0 0 0 0 0 0 0 0 0 0 0 0 0 0 0 0 0 0 0 0 0 0 0 0 0 0 0 0 0 0 0 0 0
0 0 0 0 0 0 0 0 0 0 0 0 0 0 0 0 0 0 0 0 0 0 0 0 0 0 0 0 0 0 0 0 0 0 0 0 0 0 0 0 0 0 0 0 0
0 0 0 0 0 0 0 0 0 0 0 0 0 0 0 0 0 0 0 0 0 0 0 0 0 0 0 0 0 0 0 0 0 0 0 0 0 0 0 0 0 0 0 0 0
0 0 0 0 0 0 0 0 0 0 0 0 0 0 0 0 0 0 0 0 0 0 0 0 0 0 0 0 0 0 0 0 0 0 0 0 0 0 0 0 0 0 0 0 0
0 0 0 0 0 0 0 0 0 0 0 0 0 0 0 0 0 0 0 0 0 0 0 0 0 0 0 0 0 0 0 0 0 0 0 0 0 0 0 0 0 0 0 0 0
0 0 0 0 0 0 0 0 0 0 0 0 0 0 0 0 0 0 0 0 0 0 0 0 0 0 0 0 0 0 0 0 0 0 0 0 0 0 0 0 0 0 0 0 0
0 0 0 0 0 0 0 0 0 0 0 0 0 0 0 0 0 0 0 0 0 0 0 0 0 0 0 0 0 0 0 0 0 0 0 0 0 0 0 0 0 0 0 0 0
0 0 0 0 0 0 0 0 0 0 0 0 0 0 0 0 0 0 0 0 0 0 0 0 0 0 0 0 0 0 0 0 0 0 0 0 0 0 0 0 0 0 0 0 0
0 0 0 0 0 0 0 0 0 0 0 0 0 0 0 0 0 0 0 0 0 0 0 0 0 0 0 0 0 0 0 0 0 0 0 0 0 0 0 0 0 0 0 0 0
0 0 0 0 0 0 0 0 0 0 0 0 0 0 0 0 0 0 0 0 0 0 0 0 0 0 0 0 0 0 0 0 0 0 0 0 0 0 0 0 0 0 0 0 0
0 0 0 0 0 0 0 0 0 0 0 0 0 0 0 0 0 0 0 0 0 0 0 0 0 0 0 0 0 0 0 0 0 0 0 0 0 0 0 0 0 0 0 0 0
0 0 0 0 0 0 0 0 0 0 0 0 0 0 0 0 0 0 0 0 0 0 0 0 0 0 0 0 0 0 0 0 0 0 0 0 0 0 0 0 0 0 0 0 0
CIN
-0 -21 -94 -6 -1 -0 -2 -0 -5 -27 -49 -81 -0 -0 -0 -0 -22 -6 -2 -4 -6 -12 -0 -0 -0 -0 -0 -0 -0 -0 -0 -0 -0 -0 -0 -0 -0 -0 -0 -0 -0 -0 -0 -0 -0
-0 -23 -36 -5 -19 -69 -4 -0 -0 -14 -53 -0 -0 -0 -0 -0 -2 -3 -8 -2 -18 -0 -0 -0 -0 -0 -0 -0 -0 -0 -0 -0 -0 -0 -0 -0 -0 -0 -0 -0 -0 -0 -0 -0 -0
-0 -39 -0 -83 -6 -29 -4 -5 -3 -18 -74 -115 -85 -0 -0 -1 -0 -0 -54 -2 -0 -0 -0 -0 -0 -1 -0 -0 -0 -0 -0 -0 -0 -0 -0 -0 -0 -0 -0 -0 -0 -0 -0 -0 -0
-0 -19 -35 -15 -6 -2 -10 -18 -30 -18 -43 -91 -0 -0 -0 -0 -0 -0 -0 -0 -0 -0 -0 -0 -0 -0 -0 -0 -0 -0 -0 -0 -0 -0 -0 -0 -0 -0 -0 -0 -0 -0 -0 -0 -0
-18 -0 -92 -26 -11 -11 -6 -29 -23 -23 -8 -19 -19 -65 -63 -0 -0 -0 -0 -0 -0 -0 -0 -0 -0 -0 -0 -0 -0 -0 -0 -0 -0 -0 -0 -0 -0 -0 -0 -0 -0 -0 -0 -0 -0
-1 -0 -54 -97 -38 -7 -2 -6 -1 -2 -25 -36 -54 -61 -34 -0 -0 -0 -0 -0 -0 -0 -0 -0 -0 -0 -0 -0 -0 -0 -0 -0 -0 -0 -0 -0 -0 -0 -0 -0 -0 -0 -0 -0 -0
-0 -0 -0 -0 -3 -11 -14 -24 -0 -36 -38 -11 -29 -6 -0 -0 -0 -0 -0 -0 -0 -0 -0 -0 -0 -0 -0 -0 -0 -0 -0 -0 -0 -0 -0 -0 -0 -0 -0 -0 -0 -0 -0 -0 -0
-0 -0 -0 -0 -0 -0 -0 -0 -0 -0 -0 -0 -0 -0 -0 -0 -0 -0 -0 -0 -0 -0 -0 -0 -0 -0 -0 -0 -0 -0 -0 -0 -0 -0 -0 -0 -0 -0 -0 -0 -0 -0 -0 -0 -0
-0 -0 -0 -0 -0 -0 -0 -0 -0 -0 -0 -0 -0 -0 -0 -0 -0 -0 -0 -0 -0 -0 -0 -0 -0 -0 -0 -0 -0 -0 -0 -0 -0 -0 -0 -0 -0 -0 -0 -0 -0 -0 -0 -0 -0
-0 -0 -0 -0 -0 -0 -0 -0 -0 -0 -0 -0 -0 -0 -0 -0 -0 -0 -0 -0 -0 -0 -0 -0 -0 -0 -0 -0 -0 -0 -0 -0 -0 -0 -0 -0 -0 -0 -0 -0 -0 -0 -0 -0 -0
-0 -0 -0 -0 -0 -0 -0 -0 -0 -0 -0 -0 -0 -0 -0 -0 -0 -0 -0 -0 -0 -0 -0 -0 -0 -0 -0 -0 -0 -0 -0 -0 -0 -0 -0 -0 -0 -0 -0 -0 -0 -0 -0 -0 -0
-0 -0 -0 -0 -0 -0 -0 -0 -0 -0 -0 -0 -0 -0 -0 -0 -0 -0 -0 -0 -0 -0 -0 -0 -0 -0 -0 -0 -0 -0 -0 -0 -0 -0 -0 -0 -0 -0 -0 -0 -0 -0 -0 -0 -0
-0 -0 -0 -0 -0 -0 -0 -0 -0 -0 -0 -0 -0 -0 -0 -0 -0 -0 -0 -0 -0 -0 -0 -0 -0 -0 -0 -0 -0 -0 -0 -0 -0 -0 -0 -0 -0 -0 -0 -0 -0 -0 -0 -0 -0
-0 -0 -0 -0 -0 -0 -0 -0 -0 -0 -0 -0 -0 -0 -0 -0 -0 -0 -0 -0 -0 -0 -0 -0 -0 -0 -0 -0 -0 -0 -0 -0 -0 -0 -0 -0 -0 -0 -0 -0 -0 -0 -0 -0 -0
-0 -0 -0 -0 -0 -0 -0 -0 -0 -0 -0 -0 -0 -0 -0 -0 -0 -0 -0 -0 -0 -0 -0 -0 -0 -0 -0 -0 -0 -0 -0 -0 -0 -0 -0 -0 -0 -0 -0 -0 -0 -0 -0 -0 -0
-0 -0 -0 -0 -0 -0 -0 -0 -0 -0 -0 -0 -0 -0 -0 -0 -0 -0 -0 -0 -0 -0 -0 -0 -0 -0 -0 -0 -0 -0 -0 -0 -0 -0 -0 -0 -0 -0 -0 -0 -0 -0 -0 -0 -0
-0 -0 -0 -0 -0 -0 -0 -0 -0 -0 -0 -0 -0 -0 -0 -0 -0 -0 -0 -0 -0 -0 -0 -0 -0 -0 -0 -0 -0 -0 -0 -0 -0 -0 -0 -0 -0 -0 -0 -0 -0 -0 -0 -0 -0
-0 -0 -0 -0 -0 -0 -0 -0 -0 -0 -0 -0 -0 -0 -0 -0 -0 -0 -0 -0 -0 -0 -0 -0 -0 -0 -0 -0 -0 -0 -0 -0 -0 -0 -0 -0 -0 -0 -0 -0 -0 -0 -0 -0 -0
-0 -0 -0 -0 -0 -0 -0 -0 -0 -0 -0 -0 -0 -0 -0 -0 -0 -0 -0 -0 -0 -0 -0 -0 -0 -0 -0 -0 -0 -0 -0 -0 -0 -0 -0 -0 -0 -0 -0 -0 -0 -0 -0 -0 -0
-0 -0 -0 -0 -0 -0 -0 -0 -0 -0 -0 -0 -0 -0 -0 -0 -0 -0 -0 -0 -0 -0 -0 -0 -0 -0 -0 -0 -0 -0 -0 -0 -0 -0 -0 -0 -0 -0 -0 -0 -0 -0 -0 -0 -0
-0 -0 -0 -0 -0 -0 -0 -0 -0 -0 -0 -0 -0 -0 -0 -0 -0 -0 -0 -0 -0 -0 -0 -0 -0 -0 -0 -0 -0 -0 -0 -0 -0 -0 -0 -0 -0 -0 -0 -0 -0 -0 -0 -0 -0
-0 -0 -0 -0 -0 -0 -0 -0 -0 -0 -0 -0 -0 -0 -0 -0 -0 -0 -0 -0 -0 -0 -0 -0 -0 -0 -0 -0 -0 -0 -0 -0 -0 -0 -0 -0 -0 -0 -0 -0 -0 -0 -0 -0 -0
-0 -0 -0 -0 -0 -0 -0 -0 -0 -0 -0 -0 -0 -0 -0 -0 -0 -0 -0 -0 -0 -0 -0 -0 -0 -0 -0 -0 -0 -0 -0 -0 -0 -0 -0 -0 -0 -0 -0 -0 -0 -0 -0 -0 -0
-0 -0 -0 -0 -0 -0 -0 -0 -0 -0 -0 -0 -0 -0 -0 -0 -0 -0 -0 -0 -0 -0 -0 -0 -0 -0 -0 -0 -0 -0 -0 -0 -0 -0 -0 -0 -0 -0 -0 -0 -0 -0 -0 -0 -0
-0 -0 -0 -0 -0 -0 -0 -0 -0 -0 -0 -0 -0 -0 -0 -0 -0 -0 -0 -0 -0 -0 -0 -0 -0 -0 -0 -0 -0 -0 -0 -0 -0 -0 -0 -0 -0 -0 -0 -0 -0 -0 -0 -0 -0
-0 -0 -0 -0 -0 -0 -0 -0 -0 -0 -0 -0 -0 -0 -0 -0 -0 -0 -0 -0 -0 -0 -0 -0 -0 -0 -0 -0 -0 -0 -0 -0 -0 -0 -0 -0 -0 -0 -0 -0 -0 -0 -0 -0 -0
-0 -0 -0 -0 -0 -0 -0 -0 -0 -0 -0 -0 -0 -0 -0 -0 -0 -0 -0 -0 -0 -0 -0 -0 -0 -0 -0 -0 -0 -0 -0 -0 -0 -0 -0 -0 -0 -0 -0 -0 -0 -0 -0 -0 -0
Wind_Speed
40 38 40 38 22 12 18 16 18 17 12 7 7 8 8 11 12 17 24 24 27 26 26 28 30 29 28 24 22 21 23 24 16 15 16 16 16 16 15 9 13 14 12 7 7
40 37 35 34 30 9 26 27 24 19 13 13 11 5 5 9 16 22 25 22 24 27 31 32 31 32 30 25 23 23 23 21 17 15 11 14 13 14 15 12 14 12 11 9 8
35 35 30 31 32 34 31 29 27 22 11 6 11 25 8 11 20 18 19 22 25 27 29 29 29 29 28 26 23 21 22 18 17 15 10 14 11 15 14 17 14 13 9 8 9
34 33 27 25 28 30 30 29 27 30 7 19 24 24 2 9 17 14 17 20 23 25 31 31 30 32 27 28 24 22 18 17 18 17 15 15 13 16 19 15 13 11 7 9 10
36 31 29 23 26 29 29 24 22 24 30 26 31 24 11 13 10 13 14 20 20 23 29 29 32 28 27 24 21 21 19 15 15 16 15 16 17 18 19 14 14 14 13 12 12
35 33 29 28 31 33 19 6 8 12 9 31 29 20 13 11 10 11 16 19 20 22 24 26 26 24 22 20 25 19 15 15 15 15 16 19 19 19 19 13 16 15 15 15 14
31 31 27 23 30 32 5 13 10 19 26 26 21 15 9 12 9 12 17 17 16 19 20 18 18 21 19 18 15 13 17 15 17 18 19 20 23 23 19 16 20 19 18 17 15
28 30 27 21 24 27 27 13 20 22 19 17 17 18 12 10 6 5 13 13 9 10 12 12 12 15 18 14 18 19 19 22 20 20 20 20 26 20 15 20 23 22 20 19 18
27 25 30 24 19 10 8 11 17 21 22 15 15 21 19 8 6 7 9 15 13 11 10 11 13 16 17 20 20 23 24 23 22 20 21 22 25 19 19 23 25 25 21 18 18
22 25 25 25 17 7 3 10 9 17 19 21 15 25 16 9 9 10 13 13 14 12 10 13 15 18 20 22 26 26 24 23 23 22 24 26 30 29 23 24 24 23 23 17 16
18 20 20 22 19 14 10 17 26 31 37 30 28 29 19 11 14 9 11 17 16 13 14 13 16 20 19 19 21 24 20 22 21 21 24 27 31 31 29 25 25 22 21 22 19
18 16 19 19 19 13 21 26 26 24 34 30 17 20 7 11 10 5 8 17 13 12 11 12 15 15 15 17 17 17 19 21 20 22 25 29 35 34 28 25 23 23 22 22 20
16 18 16 19 20 24 31 28 19 11 26 14 14 14 12 8 7 7 8 10 9 9 8 11 12 12 14 13 15 16 19 20 23 24 23 28 30 25 23 23 23 23 23 24 24
16 16 16 15 18 17 21 14 14 14 23 4 8 8 10 14 10 7 10 13 9 8 6 8 11 11 10 14 17 18 18 19 21 23 26 22 30 27 27 27 26 26 25 24 22
15 13 13 13 14 14 12 9 10 13 20 9 11 13 10 12 15 8 9 5 5 10 13 12 10 11 12 15 18 16 17 18 21 23 25 23 27 26 27 28 26 24 20 16 15
16 16 11 13 13 12 10 10 14 16 22 14 15 11 13 7 13 14 12 8 13 5 4 10 12 13 14 14 15 15 18 18 20 23 28 24 25 27 25 24 24 23 22 17 15
17 17 17 13 15 10 11 14 22 24 16 18 16 14 7 10 12 13 13 14 15 13 12 13 15 15 17 16 16 18 20 23 26 26 29 23 28 29 30 26 25 23 21 20 16
17 18 19 19 13 12 16 21 29 23 22 18 19 16 14 12 11 14 16 13 12 15 11 14 16 16 18 16 17 18 19 22 27 28 28 25 30 28 23 27 26 25 21 19 19
17 20 21 15 13 15 19 28 26 25 23 23 19 19 13 13 13 14 13 14 15 16 16 16 17 15 17 18 19 19 20 19 23 25 29 27 28 31 24 23 26 23 21 19 19
17 17 23 16 15 16 22 25 23 22 22 19 21 18 21 17 15 15 14 15 15 16 17 17 20 18 18 18 18 19 16 21 22 28 30 29 30 29 26 26 27 24 20 18 17
20 19 19 18 18 20 24 22 23 20 17 18 20 21 21 20 16 10 12 14 14 14 16 16 17 18 17 17 18 18 20 20 22 23 29 33 30 22 26 29 27 23 21 20 21
18 22 20 18 22 21 21 20 19 18 16 18 17 17 18 19 19 18 17 14 12 13 15 15 17 19 18 16 19 19 20 16 23 25 25 31 36 23 22 21 19 19 21 21 25
21 21 18 19 23 22 19 18 17 16 16 15 16 16 17 17 17 17 17 16 18 17 16 11 9 17 16 19 18 19 18 18 22 23 24 24 24 19 20 20 22 24 27 29 30
16 22 21 20 20 21 18 16 15 14 14 14 14 14 15 15 15 15 15 15 16 16 16 14 13 15 17 17 12 8 6 8 13 23 25 24 28 29 30 29 32 35 36 30 33
20 15 16 21 22 21 18 16 15 14 13 12 12 10 11 12 12 12 12 12 12 12 12 11 12 11 16 18 17 17 19 18 16 21 27 29 32 32 36 38 35 35 32 31 29
19 19 16 16 15 16 16 16 15 15 12 12 11 14 9 10 17 15 12 8 8 9 7 7 11 4 18 16 16 19 19 18 21 26 28 30 33 28 20 28 34 33 31 29 28
19 17 16 15 16 16 15 15 15 18 15 13 12 13 12 12 17 19 20 19 16 13 10 13 20 26 26 25 31 29 18 9 10 10 13 20 20 29 30 31 31 34 31 28 30
Wind_Direction
39 47 45 25 79 27 36 48 62 69 66 41 3 340 287 254 242 232 221 230 224 218 217 207 213 212 212 222 227 234 231 234 236 227 236 236 245 255 265 275 283 295 312 360 26
47 55 62 63 68 11 30 49 61 62 50 52 47 30 276 228 205 215 231 236 227 216 209 204 206 207 209 217 226 227 232 236 243 252 231 233 250 252 265 278 284 297 317 342 2
54 60 71 72 70 69 45 54 63 63 42 17 199 80 184 219 210 225 227 232 218 213 211 204 204 206 212 216 225 231 234 238 244 254 246 244 258 266 271 275 289 294 313 330 338
55 63 75 80 83 88 92 97 56 91 171 151 134 90 84 231 206 224 229 214 206 214 206 202 202 209 212 214 226 227 241 245 248 252 256 252 266 267 276 287 306 321 331 329 329
54 64 73 83 87 92 94 112 129 139 117 124 106 76 210 203 208 220 210 197 208 207 202 199 202 210 210 218 221 228 236 248 252 255 264 266 269 275 277 296 306 312 317 320 323
56 60 72 83 81 81 101 97 137 147 97 93 99 140 173 157 228 216 200 194 204 205 196 199 210 218 214 218 227 229 231 244 257 263 267 268 275 280 283 297 299 307 309 313 317
62 64 76 90 86 86 86 127 138 136 112 112 138 153 127 156 207 206 198 189 208 206 202 214 216 219 213 219 224 220 233 248 259 264 271 275 274 277 289 299 296 302 306 309 312
68 66 77 95 98 99 99 128 120 115 132 147 146 151 152 183 201 162 186 187 200 188 198 206 216 216 224 217 231 236 243 246 260 267 275 277 275 282 291 294 294 299 305 308 310
73 76 76 95 109 118 121 133 119 114 120 143 148 136 146 198 183 197 187 187 193 200 202 215 225 224 221 221 230 240 243 250 260 273 277 277 282 289 298 297 295 298 303 305 308
80 81 84 90 105 128 172 151 129 111 119 120 146 129 146 171 186 186 192 194 198 194 205 222 225 220 225 228 234 239 246 254 262 274 277 279 279 287 296 299 301 302 301 304 305
85 90 93 93 97 111 136 129 87 74 61 102 113 126 147 179 173 183 190 189 198 207 205 230 211 218 230 244 250 251 254 257 270 282 283 283 285 289 293 298 297 299 300 301 306
83 97 98 98 102 113 112 109 106 111 75 83 131 135 174 187 178 203 210 197 201 194 212 216 219 242 250 255 258 262 259 266 280 288 287 289 286 291 296 296 295 296 298 301 305
87 94 110 108 107 105 92 100 119 152 104 134 138 150 172 195 185 202 206 197 197 198 217 222 235 255 254 262 262 269 269 276 279 291 294 296 292 305 310 300 298 299 300 301 302
89 100 111 125 117 113 98 109 118 131 54 213 197 215 204 197 200 221 223 211 221 214 230 246 256 261 269 266 275 268 287 290 289 292 288 307 292 303 304 303 302 302 302 303 306
86 103 117 121 122 123 126 125 136 151 117 182 182 198 213 204 209 237 243 231 222 241 243 248 262 276 273 276 282 282 293 296 295 294 297 299 297 301 307 305 307 309 312 316 321
88 89 114 117 119 125 143 142 130 133 109 153 161 211 206 221 201 213 220 241 229 261 300 252 265 274 277 290 296 300 300 303 302 299 292 299 299 301 309 312 314 317 321 326 328
88 83 89 107 110 141 149 129 96 99 153 137 160 179 247 229 219 216 213 219 230 247 263 260 264 269 273 286 299 299 296 293 292 293 291 302 298 296 300 308 311 316 323 324 329
91 80 80 86 112 132 124 97 84 101 118 151 145 172 198 246 251 227 228 244 256 247 270 270 271 284 284 293 297 304 304 297 291 293 297 303 295 300 314 314 313 312 317 323 326
86 72 72 88 109 117 103 81 90 97 119 123 142 143 201 226 242 247 258 262 267 273 275 277 282 297 295 296 297 299 300 310 303 304 300 298 300 304 315 319 319 319 316 316 324
73 73 57 84 107 106 87 87 97 110 114 121 112 136 128 174 214 247 273 283 287 291 288 291 284 295 301 302 304 304 314 304 305 298 296 295 297 302 311 313 318 326 323 326 332
63 65 59 76 81 81 79 92 100 116 124 114 111 114 121 133 182 337 319 299 300 306 303 307 305 302 309 304 304 305 304 306 306 303 298 296 298 322 316 315 317 325 329 329 328
67 53 59 75 56 63 74 86 104 106 118 112 121 123 122 127 123 131 142 321 327 318 313 321 310 299 306 315 311 308 307 308 300 301 302 299 294 320 330 332 335 335 331 323 307
46 52 63 63 40 44 64 71 81 90 100 113 113 116 123 126 127 127 129 155 159 150 157 100 330 273 293 313 321 308 312 308 305 312 301 306 304 334 333 326 317 306 300 299 306
53 33 46 52 46 40 46 48 55 64 76 88 102 121 115 124 129 127 128 135 144 159 170 178 155 182 200 221 0 181 131 164 181 221 231 218 239 269 270 282 282 281 289 310 315
37 57 61 36 33 36 30 33 36 36 44 52 57 101 100 75 92 136 119 111 130 134 141 146 179 182 211 223 219 219 220 213 208 218 230 249 249 254 273 281 295 305 309 311 315
34 29 41 46 53 47 41 29 16 17 27 22 26 13 32 20 340 1 11 72 138 56 78 75 189 82 231 226 218 227 226 223 225 230 233 238 249 250 233 310 306 307 310 312 315
23 27 29 32 31 32 37 37 25 2 2 6 8 358 1 347 333 323 315 322 331 342 349 341 319 308 311 313 292 260 255 217 196 208 212 224 233 275 291 295 299 302 310 316 316